Date String (YYYY-MM-DD hh:mm:ss) UTC,Instrument flags,Ambient pressure (hPa),Sample flow (lpm),Bypass flow (lpm),Sample temperature (°C),Ambient temperature (°C),ASC tube jacket temperature (°C),LED temperature (°C),Box temperature (°C),Sample RH (%),Span deviation,Mass concentration (μg/m³),Mass concentration (μg/m³),Mass concentration (μg/m³)
DateTimeUTC,F1_M11,P_M11,Q1_M11,Q2_M11,T1_M11,T2_M11,T3_M11,T4_M11,T5_M11,U1_M11,ZSPAN_M11,X0_M11,X2_M11,X1_M11
2022-06-26 02:00:00,,0835.0,4.99,0.00,29.6,27.7,00.0,38.4,31.3,25.3,0000.0,0012.16,0004.83,0004.08
2022-06-26 02:01:00,,0835.1,5.00,0.00,29.5,27.8,00.0,38.4,31.3,25.6,0000.0,0012.01,0004.82,0004.08
2022-06-26 02:02:00,,0835.1,5.00,0.00,29.5,27.9,00.0,38.4,31.4,26.3,0000.0,0011.81,0004.84,0004.05
2022-06-26 02:03:00,,0835.1,5.00,0.00,29.5,28.0,00.0,38.4,31.4,26.5,0000.0,0011.69,0004.84,0004.04
2022-06-26 02:04:00,,0835.1,5.00,0.00,29.6,28.2,00.0,38.4,31.4,26.2,0000.0,0011.38,0004.80,0004.04
2022-06-26 02:05:00,,0835.1,5.01,0.00,29.6,28.3,00.0,38.4,31.5,26.7,0000.0,0011.42,0004.77,0004.02
2022-06-26 02:06:00,,0835.1,5.00,0.00,29.6,28.4,00.0,38.4,31.5,26.8,0000.0,0011.16,0004.73,0004.00
2022-06-26 02:07:00,,0835.2,4.99,0.00,29.6,28.5,00.0,38.4,31.5,26.4,0000.0,0011.25,0004.74,0004.00
2022-06-26 02:08:00,,0835.2,5.00,0.00,29.6,28.5,00.0,38.4,31.6,26.2,0000.0,0011.55,0004.73,0003.99
2022-06-26 02:09:00,,0835.1,5.00,0.00,29.6,28.6,00.0,38.4,31.6,26.0,0000.0,0011.09,0004.70,0003.99
2022-06-26 02:10:00,,0835.1,5.00,0.00,29.7,28.7,00.0,38.4,31.6,25.8,0000.0,0010.61,0004.66,0003.98
2022-06-26 02:11:00,,0835.2,4.98,0.00,29.7,28.7,00.0,38.5,31.7,25.4,0000.0,0010.58,0004.67,0003.97
2022-06-26 02:12:00,,0835.2,5.01,0.00,29.7,28.8,00.0,38.5,31.7,24.7,0000.0,0011.01,0004.68,0003.97
2022-06-26 02:13:00,,0835.2,5.01,0.00,29.8,28.8,00.0,38.5,31.7,24.6,0000.0,0011.07,0004.69,0003.99
2022-06-26 02:14:00,,0835.1,5.00,0.00,29.8,28.9,00.0,38.5,31.8,24.5,0000.0,0011.00,0004.72,0004.02
2022-06-26 02:15:00,,0835.2,4.99,0.00,29.8,28.9,00.0,38.5,31.7,24.6,0000.0,0010.95,0004.72,0004.03
2022-06-26 02:16:00,,0835.2,5.01,0.00,29.8,28.4,00.0,38.5,31.6,25.0,0000.0,0011.43,0004.75,0004.05
2022-06-26 02:17:00,,0835.2,5.01,0.00,29.7,27.8,00.0,38.4,31.5,25.2,0000.0,0012.50,0004.77,0004.06
2022-06-26 02:18:00,,0835.2,5.00,0.00,29.7,27.6,00.0,38.4,31.4,25.0,0000.0,0011.96,0004.76,0004.06
2022-06-26 02:19:00,,0835.2,5.01,0.00,29.6,27.6,00.0,38.4,31.3,24.9,0000.0,0012.02,0004.76,0004.07
2022-06-26 02:20:00,,0835.2,5.00,0.00,29.6,27.7,00.0,38.4,31.3,25.2,0000.0,0012.91,0004.79,0004.08
2022-06-26 02:21:00,,0835.2,5.00,0.00,29.6,27.8,00.0,38.4,31.4,25.2,0000.0,0013.17,0004.81,0004.09
2022-06-26 02:22:00,,0835.2,5.00,0.00,29.6,27.9,00.0,38.4,31.4,25.3,0000.0,0013.07,0004.81,0004.10
2022-06-26 02:23:00,,0835.2,5.00,0.00,29.6,28.0,00.0,38.4,31.4,25.1,0000.0,0012.85,0004.85,0004.11
2022-06-26 02:24:00,,0835.2,5.00,0.00,29.6,28.2,00.0,38.4,31.4,25.3,0000.0,0014.46,0004.84,0004.11
2022-06-26 02:25:00,,0835.2,5.00,0.00,29.6,28.3,00.0,38.4,31.5,25.5,0000.0,0015.80,0004.81,0004.10
2022-06-26 02:26:00,,0835.3,5.00,0.00,29.6,28.4,00.0,38.4,31.5,25.6,0000.0,0016.00,0004.79,0004.09
2022-06-26 02:27:00,,0835.3,5.00,0.00,29.6,28.5,00.0,38.4,31.5,25.6,0000.0,0015.64,0004.74,0004.08
2022-06-26 02:28:00,,0835.4,5.00,0.00,29.6,28.5,00.0,38.4,31.6,25.6,0000.0,0014.13,0004.72,0004.06
2022-06-26 02:29:00,,0835.4,4.99,0.00,29.7,28.6,00.0,38.4,31.6,24.9,0000.0,0014.02,0004.73,0004.07
2022-06-26 02:30:00,,0835.4,5.00,0.00,29.7,28.7,00.0,38.5,31.6,24.7,0000.0,0013.72,0004.73,0004.06
2022-06-26 02:31:00,,0835.4,5.01,0.00,29.7,28.7,00.0,38.5,31.7,24.6,0000.0,0013.08,0004.72,0004.05
2022-06-26 02:32:00,,0835.4,4.99,0.00,29.7,28.8,00.0,38.5,31.7,24.6,0000.0,0013.18,0004.68,0004.04
2022-06-26 02:33:00,,0835.4,5.00,0.00,29.8,28.8,00.0,38.5,31.7,24.5,0000.0,0013.55,0004.69,0004.04
2022-06-26 02:34:00,,0835.4,5.00,0.00,29.8,28.9,00.0,38.5,31.8,24.9,0000.0,0013.43,0004.65,0004.03
2022-06-26 02:35:00,,0835.4,5.02,0.00,29.8,28.9,00.0,38.5,31.7,25.1,0000.0,0012.09,0004.65,0004.01
2022-06-26 02:36:00,,0835.4,4.99,0.00,29.8,28.2,00.0,38.5,31.6,25.3,0000.0,0011.50,0004.65,0003.99
2022-06-26 02:37:00,,0835.4,5.00,0.00,29.7,27.6,00.0,38.4,31.4,25.4,0000.0,0012.41,0004.64,0003.98
2022-06-26 02:38:00,,0835.4,5.01,0.00,29.6,27.5,00.0,38.4,31.3,25.6,0000.0,0012.64,0004.68,0003.97
2022-06-26 02:39:00,,0835.4,5.00,0.00,29.6,27.5,00.0,38.4,31.3,25.9,0000.0,0012.65,0004.69,0003.97
2022-06-26 02:40:00,,0835.4,5.00,0.00,29.6,27.6,00.0,38.4,31.3,25.8,0000.0,0013.66,0004.69,0003.96
2022-06-26 02:41:00,,0835.4,5.00,0.00,29.5,27.8,00.0,38.4,31.3,25.7,0000.0,0014.12,0004.67,0003.94
2022-06-26 02:42:00,,0835.4,4.99,0.00,29.5,27.9,00.0,38.4,31.4,25.7,0000.0,0013.68,0004.64,0003.92
2022-06-26 02:43:00,,0835.4,5.00,0.00,29.5,28.0,00.0,38.4,31.4,25.7,0000.0,0013.43,0004.65,0003.91
2022-06-26 02:44:00,,0835.4,5.00,0.00,29.6,28.2,00.0,38.4,31.4,25.7,0000.0,0014.16,0004.64,0003.89
2022-06-26 02:45:00,,0835.4,5.00,0.00,29.6,28.3,00.0,38.4,31.5,25.6,0000.0,0014.81,0004.63,0003.87
2022-06-26 02:46:00,,0835.4,5.00,0.00,29.6,28.4,00.0,38.4,31.5,25.6,0000.0,0014.56,0004.60,0003.87
2022-06-26 02:47:00,,0835.4,5.00,0.00,29.6,28.5,00.0,38.4,31.5,25.6,0000.0,0013.73,0004.60,0003.86
2022-06-26 02:48:00,,0835.4,4.98,0.00,29.6,28.5,00.0,38.4,31.5,25.4,0000.0,0012.62,0004.58,0003.85
2022-06-26 02:49:00,,0835.4,5.00,0.00,29.6,28.6,00.0,38.4,31.6,25.2,0000.0,0012.72,0004.54,0003.85
2022-06-26 02:50:00,,0835.4,5.01,0.00,29.7,28.7,00.0,38.5,31.6,25.3,0000.0,0013.17,0004.52,0003.85
2022-06-26 02:51:00,,0835.4,5.00,0.00,29.7,28.7,00.0,38.5,31.6,25.4,0000.0,0012.25,0004.51,0003.86
2022-06-26 02:52:00,,0835.5,5.00,0.00,29.7,28.8,00.0,38.5,31.7,25.5,0000.0,0012.43,0004.51,0003.86
2022-06-26 02:53:00,,0835.5,4.99,0.00,29.7,28.8,00.0,38.5,31.7,25.4,0000.0,0012.87,0004.53,0003.86
2022-06-26 02:54:00,,0835.5,5.00,0.00,29.8,28.9,00.0,38.5,31.7,25.0,0000.0,0013.04,0004.55,0003.86
2022-06-26 02:55:00,,0835.5,5.00,0.00,29.8,28.9,00.0,38.5,31.8,24.9,0000.0,0012.41,0004.54,0003.86
2022-06-26 02:56:00,,0835.6,5.00,0.00,29.8,28.8,00.0,38.5,31.7,25.0,0000.0,0011.61,0004.53,0003.88
2022-06-26 02:57:00,,0835.6,5.01,0.00,29.8,28.0,00.0,38.5,31.6,25.0,0000.0,0011.19,0004.53,0003.90
2022-06-26 02:58:00,,0835.6,4.99,0.00,29.7,27.6,00.0,38.4,31.4,25.2,0000.0,0011.22,0004.52,0003.89
2022-06-26 02:59:00,,0835.6,4.99,0.00,29.6,27.5,00.0,38.4,31.3,25.3,0000.0,0011.50,0004.55,0003.89
